Lawrence, KS

7:43 AM CDT on October 22, 2017 (GMT -0500)
Lawrence Municipal

Weather History for KLWC - December, 2013

Change the Weather History Date:

Wednesday, December 11, 2013

  Actual Average Record
Temperature  
Mean Temperature 18 °F 32 °F  
Max Temperature 29 °F 43 °F 66 °F (2015)
Min Temperature 7 °F 22 °F 3 °F (2000)
Degree Days  
Heating Degree Days 47 33  
Month to date heating degree days 425 339  
Since 1 July heating degree days 1455 1347  
Cooling Degree Days 0 0  
Month to date cooling degree days 0 0  
Year to date cooling degree days 1492 1371  
Moisture  
Dew Point 9 °F    
Average Humidity 59    
Maximum Humidity 80    
Minimum Humidity 37    
Precipitation  
Precipitation 0.00 in 0.05 in 0.96 in (2007)
Month to date precipitation 0.03 0.47  
Year to date precipitation 27.98 37.55  
Sea Level Pressure  
Sea Level Pressure 30.56 in    
Wind  
Wind Speed 8 mph (North)    
Max Wind Speed 23 mph    
Max Gust Speed 31 mph    
Visibility 10 miles    
Events      
T = Trace of Precipitation, MM = Missing Value Source: NWS Daily Summary

Daily Weather History Graph

Daily Weather History Graph

Search for Another Location

Airport or City:

Trip Planner

Search our weather history database for the weather conditions in past years. The results will help you decide how hot, cold, wet, or windy it might be!

Date:

Astronomy

Dec. 11, 2013 Rise Set
Actual Time 7:29 AM CST 4:58 PM CST
Civil Twilight 6:59 AM CST 5:28 PM CST
Nautical Twilight 6:26 AM CST 6:02 PM CST
Astronomical Twilight 5:54 AM CST 6:34 PM CST
Moon 1:30 PM CST (12/11) 1:54 AM CST (12/11)
Length of Visible Light 10h 28m
Length of Day
9h 28m
Waxing Gibbous, 72% of the Moon is Illuminated
Dec 11
Waxing Gibbous
Dec 17
Full
Dec 25
Last Quarter
Jan 1
New
Jan 7
First Quarter

Hourly Weather History & Observations

Time (CST) Temp. Windchill Dew Point Humidity Pressure Visibility Wind Dir Wind Speed Gust Speed Precip Events Conditions
12:52 AM 21.0 °F 14.6 °F 14.0 °F 74% 30.27 in 9.0 mi ESE 4.6 mph - N/A   Clear
1:52 AM 18.0 °F - 12.0 °F 78% 30.30 in 8.0 mi Calm Calm - N/A   Clear
2:52 AM 16.0 °F 7.4 °F 10.9 °F 81% 30.34 in 8.0 mi WNW 5.8 mph - N/A   Clear
3:52 AM 19.0 °F - 14.0 °F 81% 30.35 in 8.0 mi Calm Calm - N/A   Clear
4:52 AM 26.1 °F 14.5 °F 19.9 °F 78% 30.37 in 10.0 mi North 13.8 mph - N/A   Mostly Cloudy
5:12 AM 28.9 °F 16.9 °F 21.0 °F 72% 30.37 in 10.0 mi NNW 17.3 mph 21.9 mph N/A   Scattered Clouds
5:52 AM 27.0 °F 12.8 °F 18.0 °F 69% 30.44 in 10.0 mi North 21.9 mph 31.1 mph N/A   Clear
6:52 AM 24.1 °F 12.5 °F 16.0 °F 71% 30.52 in 10.0 mi NNW 12.7 mph - N/A   Clear
7:52 AM 21.9 °F 9.2 °F 14.0 °F 72% 30.56 in 10.0 mi North 13.8 mph - N/A   Clear
8:52 AM 23.0 °F 10.1 °F 14.0 °F 68% 30.61 in 10.0 mi North 15.0 mph 24.2 mph N/A   Scattered Clouds
9:52 AM 24.1 °F 11.0 °F 12.0 °F 60% 30.64 in 10.0 mi North 16.1 mph - N/A   Clear
10:52 AM 26.1 °F 15.6 °F 12.0 °F 55% 30.67 in 10.0 mi North 11.5 mph - N/A   Clear
11:52 AM 27.0 °F 16.7 °F 10.0 °F 49% 30.66 in 10.0 mi NNW 11.5 mph - N/A   Clear
12:52 PM 27.0 °F 17.3 °F 6.1 °F 41% 30.65 in 10.0 mi North 10.4 mph - N/A   Clear
1:52 PM 27.0 °F 16.7 °F 6.1 °F 41% 30.65 in 10.0 mi NNW 11.5 mph - N/A   Clear
2:52 PM 26.1 °F 16.2 °F 3.9 °F 39% 30.65 in 10.0 mi NNW 10.4 mph - N/A   Clear
3:52 PM 25.0 °F 14.2 °F 3.9 °F 41% 30.66 in 10.0 mi NNW 11.5 mph - N/A   Clear
4:52 PM 21.0 °F 10.6 °F 3.9 °F 48% 30.66 in 10.0 mi North 9.2 mph - N/A   Clear
5:52 PM 16.0 °F 7.4 °F 3.0 °F 57% 30.68 in 10.0 mi NNE 5.8 mph - N/A   Clear
6:52 PM 12.9 °F - 1.0 °F 59% 30.68 in 10.0 mi Calm Calm - N/A   Clear
7:52 PM 12.0 °F - 1.0 °F 61% 30.68 in 10.0 mi Calm Calm - N/A   Clear
8:52 PM 10.0 °F - 1.0 °F 67% 30.67 in 10.0 mi Calm Calm - N/A   Clear
9:52 PM 8.1 °F -0.5 °F -0.0 °F 70% 30.66 in 10.0 mi SE 4.6 mph - N/A   Clear
10:52 PM 8.1 °F - -0.0 °F 70% 30.66 in 10.0 mi Calm Calm - N/A   Clear
11:52 PM 8.1 °F - 1.9 °F 76% 30.66 in 10.0 mi Calm Calm - N/A   Clear